TimeCET,TemperatureF,Dew PointF,Humidity,Sea Level PressureIn,VisibilityMPH,Wind Direction,Wind SpeedMPH,Gust SpeedMPH,PrecipitationIn,Events,Conditions,WindDirDegrees,DateUTC
12:55 AM,55.4,53.6,94,29.68,6.2,ESE,6.9,-,N/A,Rain,Rain,110,2012-11-27 23:55:00
1:00 AM,55,53,89,29.70,6,ESE,6.9,,,Rain,Rain,110,2012-11-28 00:00:00
1:55 AM,55.4,53.6,94,29.68,6.2,East,6.9,-,N/A,Rain,Rain,100,2012-11-28 00:55:00
2:55 AM,55.4,51.8,88,29.65,6.2,East,9.2,-,N/A,Rain,Light Rain,90,2012-11-28 01:55:00
3:55 AM,55.4,50.0,82,29.65,6.2,East,9.2,-,N/A,Rain,Light Rain,90,2012-11-28 02:55:00
5:55 AM,59.0,53.6,82,29.59,6.2,SE,8.1,-,N/A,,Scattered Clouds,130,2012-11-28 04:55:00
7:00 AM,60,54,76,29.59,6,SE,6.9,,,Rain,Light Rain,130,2012-11-28 06:00:00
7:55 AM,59.0,53.6,82,29.56,6.2,ESE,6.9,-,N/A,,Scattered Clouds,120,2012-11-28 06:55:00
8:55 AM,60.8,53.6,77,29.53,6.2,ESE,8.1,-,N/A,,Scattered Clouds,110,2012-11-28 07:55:00
9:55 AM,62.6,51.8,68,29.50,6.2,SSW,6.9,-,N/A,,Partly Cloudy,200,2012-11-28 08:55:00
10:55 AM,64.4,53.6,68,29.50,6.2,SE,6.9,33.4,N/A,,Scattered Clouds,140,2012-11-28 09:55:00
11:55 AM,66.2,53.6,64,29.47,6.2,South,13.8,32.2,N/A,,Scattered Clouds,190,2012-11-28 10:55:00
12:55 PM,66.2,51.8,60,29.42,6.2,SE,6.9,-,N/A,,Scattered Clouds,130,2012-11-28 11:55:00
1:00 PM,66,52,51,29.44,12,SE,6.9,,,,Overcast,130,2012-11-28 12:00:00
1:55 PM,66.2,51.8,60,29.39,6.2,SE,10.4,28.8,N/A,,Scattered Clouds,140,2012-11-28 12:55:00
2:55 PM,62.6,55.4,77,29.36,6.2,ESE,8.1,21.9,N/A,Rain,Light Rain,110,2012-11-28 13:55:00
3:28 PM,59.0,55.4,88,29.36,6.2,NNE,5.8,-,N/A,Rain-Thunderstorm,Light Thunderstorms and Rain,20,2012-11-28 14:28:00
3:55 PM,57.2,53.6,88,29.30,6.2,NE,12.7,25.3,N/A,Rain-Thunderstorm,Thunderstorms and Rain,50,2012-11-28 14:55:00
4:55 PM,59.0,55.4,88,29.27,6.2,South,8.1,35.7,N/A,Rain-Thunderstorm,Thunderstorms and Rain,190,2012-11-28 15:55:00
5:55 PM,59.0,55.4,88,29.24,6.2,SE,4.6,-,N/A,Rain-Thunderstorm,Thunderstorms and Rain,140,2012-11-28 16:55:00
6:55 PM,59.0,57.2,94,29.24,6.2,NE,5.8,17.3,N/A,Rain-Thunderstorm,Thunderstorms and Rain,40,2012-11-28 17:55:00
7:00 PM,59,56,88,29.24,6,NE,5.8,,,Rain-Thunderstorm,Thunderstorms and Rain,40,2012-11-28 18:00:00
7:55 PM,57.2,55.4,94,29.27,6.2,SSW,6.9,-,N/A,Rain,Light Rain,210,2012-11-28 18:55:00
9:55 PM,55.4,50.0,82,29.30,6.2,East,6.9,-,N/A,,Overcast,90,2012-11-28 20:55:00
10:55 PM,53.6,48.2,82,29.30,-9999.0,East,6.9,-,N/A,,Clear,90,2012-11-28 21:55:00
11:55 PM,55.4,46.4,72,29.30,-9999.0,East,5.8,-,N/A,,Clear,100,2012-11-28 22:55:00